sat.trackr.live / text

‹ back to catalog

STARLINK-3203

NORAD 49761 · 2021-115AP

PAYLOAD ACTIVE UNKNOWN

§ Identity

Operator
Country
US
Launch date
2021-12-02
Launch site
AFETR
Launch vehicle
Mass (kg)
RCS (m²)

Purposes: comms

External: N2YO · Heavens-Above · Gunter

§ Orbital elements

Epoch: 2026-09-09T13:51:55.694880Z

Period
93.85 min
Inclination
53.1614°
Eccentricity
0.0000996
Mean motion
15.34391296 rev/d
Perigee alt
462.0 km
Apogee alt
463.4 km
Semi-major
6,840.9 km
B*
1.2712e-5
RAAN
20.4447°
Arg perigee
95.8878°
Mean anomaly
264.2238°
Rev number
26,361

§ Raw data

STARLINK-32031 49761U 21115AP  26252.57772795  .00000053  00000+0  12712-4 0  99972 49761  53.1614  20.4447 0000996  95.8878 264.2238 15.34391296263617

JSON: /api/v1/satellites/49761 · /tle

For live sub-satellite position, see the globe view (requires WebGL).

§ Visibility from observer

Set your observer location to see the next 7 days of passes ≥ 10°. The values pass through the URL so the page stays shareable.

No JS? Fill the form by hand. The geolocation button needs JavaScript.